CCA4580 ZUGY-ZUCK

Flight info

Callsign CCA4580
Flight time 0h 37m
Altitude 23600
Route AGTX3C AGTIS W3 ASIPO W678 SEGDA
Aircraft A346/H-SDE2E3FGHIJ3J4J5M1RWXY/LB1D1

Departure

Time 2026-05-05 18:40
Airport Guiyang Longdongbao International Airport (ZUGY)

Arrival

Time 2026-05-05 19:18
Airport Chongqing Jiangbei International Airport (ZUCK)
Time Latitude Longitude Altitude Speed Heading
2026-05-05 18:12 26.54741 106.79934 3753 ft 0 kts 240°
2026-05-05 18:29 26.54744 106.79942 3753 ft 2 kts 238°
2026-05-05 18:29 26.54753 106.79955 3753 ft 2 kts 236°
2026-05-05 18:30 26.54761 106.79969 3753 ft 2 kts 239°
2026-05-05 18:30 26.54766 106.79985 3753 ft 2 kts 272°
2026-05-05 18:30 26.54763 106.80002 3753 ft 2 kts 298°
2026-05-05 18:30 26.54753 106.80015 3753 ft 2 kts 323°
2026-05-05 18:31 26.54740 106.80022 3753 ft 2 kts 349°
2026-05-05 18:31 26.54727 106.80023 3753 ft 0 kts 11°
2026-05-05 18:31 26.54723 106.80022 3753 ft 0 kts 12°
2026-05-05 18:34 26.54732 106.80024 3753 ft 2 kts 12°
2026-05-05 18:34 26.54760 106.80031 3753 ft 5 kts 11°
2026-05-05 18:34 26.54806 106.80040 3753 ft 7 kts
2026-05-05 18:35 26.54868 106.80052 3753 ft 10 kts
2026-05-05 18:35 26.54943 106.80066 3753 ft 11 kts
2026-05-05 18:35 26.55029 106.80083 3753 ft 13 kts 10°
2026-05-05 18:35 26.55123 106.80102 3753 ft 14 kts 10°
2026-05-05 18:36 26.55225 106.80122 3753 ft 15 kts 10°
2026-05-05 18:36 26.55332 106.80143 3753 ft 16 kts 10°
2026-05-05 18:36 26.55442 106.80164 3753 ft 16 kts 10°
2026-05-05 18:36 26.55557 106.80187 3753 ft 17 kts
2026-05-05 18:37 26.55675 106.80209 3753 ft 17 kts 10°
2026-05-05 18:37 26.55796 106.80233 3753 ft 17 kts 10°
2026-05-05 18:37 26.55918 106.80258 3753 ft 17 kts 10°
2026-05-05 18:37 26.56034 106.80297 3753 ft 17 kts 35°
2026-05-05 18:38 26.56099 106.80403 3753 ft 16 kts 81°
2026-05-05 18:38 26.56094 106.80531 3753 ft 17 kts 98°
2026-05-05 18:38 26.56070 106.80662 3753 ft 17 kts 111°
2026-05-05 18:38 26.55985 106.80720 3753 ft 14 kts 183°
2026-05-05 18:39 26.55918 106.80740 3753 ft 10 kts 130°
2026-05-05 18:39 26.55893 106.80823 3753 ft 11 kts 100°
2026-05-05 18:39 26.55849 106.80877 3753 ft 11 kts 174°
2026-05-05 18:39 26.55682 106.80847 3753 ft 55 kts 191°
2026-05-05 18:40 26.55064 106.80730 3753 ft 122 kts 190°
2026-05-05 18:40 26.54046 106.80518 3769 ft 173 kts 190°
2026-05-05 18:40 26.52791 106.80248 4169 ft 187 kts 190°
2026-05-05 18:40 26.51515 106.79997 4835 ft 189 kts 188°
2026-05-05 18:41 26.50231 106.79763 5547 ft 192 kts 188°
2026-05-05 18:41 26.48924 106.79522 6262 ft 194 kts 189°
2026-05-05 18:41 26.47603 106.79273 6962 ft 196 kts 189°
2026-05-05 18:41 26.46269 106.79018 7642 ft 198 kts 189°
2026-05-05 18:42 26.44900 106.78753 8237 ft 205 kts 189°
2026-05-05 18:42 26.43439 106.78470 8652 ft 221 kts 189°
2026-05-05 18:42 26.41890 106.78140 9117 ft 234 kts 197°
2026-05-05 18:42 26.40505 106.77217 9635 ft 238 kts 226°
2026-05-05 18:43 26.39719 106.75595 10120 ft 243 kts 257°
2026-05-05 18:43 26.39804 106.73750 10619 ft 246 kts 289°
2026-05-05 18:43 26.40765 106.72150 10997 ft 259 kts 323°
2026-05-05 18:43 26.42404 106.71255 11519 ft 268 kts 341°
2026-05-05 18:44 26.44168 106.70583 12263 ft 270 kts 341°
2026-05-05 18:44 26.45928 106.69904 12995 ft 273 kts 341°
2026-05-05 18:44 26.47707 106.69196 13706 ft 276 kts 340°
2026-05-05 18:44 26.49516 106.68463 14413 ft 280 kts 341°
2026-05-05 18:45 26.51416 106.67988 15103 ft 284 kts 358°
2026-05-05 18:45 26.53398 106.68129 15608 ft 295 kts
2026-05-05 18:45 26.55487 106.68535 15974 ft 312 kts 11°
2026-05-05 18:45 26.57666 106.68997 16319 ft 330 kts 11°
2026-05-05 18:46 26.60000 106.69485 16656 ft 349 kts 11°
2026-05-05 18:46 26.62446 106.69983 16977 ft 367 kts 11°
2026-05-05 18:46 26.64982 106.70489 17285 ft 385 kts 11°
2026-05-05 18:46 26.67705 106.71026 17619 ft 401 kts 10°
2026-05-05 18:47 26.70470 106.71569 18202 ft 409 kts 10°
2026-05-05 18:47 26.73263 106.72116 18929 ft 413 kts 10°
2026-05-05 18:47 26.76095 106.72670 19634 ft 418 kts 10°
2026-05-05 18:47 26.78944 106.73227 20315 ft 422 kts 10°
2026-05-05 18:48 26.81859 106.73797 20985 ft 426 kts 10°
2026-05-05 18:48 26.84784 106.74369 21631 ft 431 kts
2026-05-05 18:48 26.87739 106.74948 22270 ft 435 kts
2026-05-05 18:48 26.90718 106.75509 22884 ft 439 kts
2026-05-05 18:49 26.93759 106.75903 23365 ft 443 kts
2026-05-05 18:49 26.96818 106.76071 23540 ft 443 kts 359°
2026-05-05 18:49 26.99875 106.76041 23543 ft 440 kts 356°
2026-05-05 18:49 27.02925 106.75954 23544 ft 438 kts 356°
2026-05-05 18:50 27.05984 106.75857 23544 ft 436 kts 355°
2026-05-05 18:50 27.09000 106.75762 23543 ft 435 kts 355°
2026-05-05 18:50 27.12002 106.75674 23543 ft 435 kts 356°
2026-05-05 18:50 27.15021 106.75590 23543 ft 435 kts 356°
2026-05-05 18:51 27.18043 106.75508 23543 ft 435 kts 356°
2026-05-05 18:51 27.21079 106.75428 23543 ft 435 kts 356°
2026-05-05 18:51 27.24084 106.75349 23543 ft 435 kts 356°
2026-05-05 18:51 27.27082 106.75271 23543 ft 435 kts 356°
2026-05-05 18:52 27.30097 106.75192 23543 ft 435 kts 356°
2026-05-05 18:52 27.33151 106.75113 23543 ft 435 kts 356°
2026-05-05 18:52 27.36159 106.75034 23543 ft 435 kts 356°
2026-05-05 18:52 27.39183 106.74989 23543 ft 436 kts 357°
2026-05-05 18:53 27.42195 106.74990 23543 ft 436 kts 357°
2026-05-05 18:53 27.45223 106.75002 23543 ft 436 kts 357°
2026-05-05 18:53 27.48218 106.75013 23543 ft 436 kts 357°
2026-05-05 18:53 27.51270 106.75023 23543 ft 436 kts 357°
2026-05-05 18:54 27.54267 106.75030 23543 ft 436 kts 357°
2026-05-05 18:54 27.57306 106.75037 23543 ft 436 kts 357°
2026-05-05 18:54 27.60314 106.75043 23543 ft 436 kts 357°
2026-05-05 18:54 27.63324 106.75047 23543 ft 436 kts 357°
2026-05-05 18:55 27.66379 106.75052 23543 ft 436 kts 357°
2026-05-05 18:55 27.69406 106.75056 23543 ft 436 kts 357°
2026-05-05 18:55 27.72409 106.75060 23543 ft 436 kts 357°
2026-05-05 18:55 27.75417 106.75064 23543 ft 436 kts 357°
2026-05-05 18:56 27.78431 106.75063 23543 ft 436 kts 357°
2026-05-05 18:56 27.81488 106.75064 23543 ft 436 kts 357°
2026-05-05 18:56 27.84498 106.75063 23543 ft 436 kts 357°
2026-05-05 18:56 27.87525 106.75066 23543 ft 436 kts 357°
2026-05-05 18:57 27.90550 106.75064 23543 ft 436 kts 357°
2026-05-05 18:57 27.93562 106.75064 23543 ft 436 kts 357°
2026-05-05 18:57 27.96603 106.75066 23543 ft 436 kts 357°
2026-05-05 18:57 27.99611 106.75066 23543 ft 436 kts 357°
2026-05-05 18:58 28.02611 106.75065 23542 ft 436 kts 357°
2026-05-05 18:58 28.05668 106.75065 23533 ft 436 kts 357°
2026-05-05 18:58 28.08700 106.75065 23512 ft 436 kts 357°
2026-05-05 18:58 28.11700 106.75066 23483 ft 436 kts 357°
2026-05-05 18:59 28.14727 106.75066 23450 ft 436 kts 357°
2026-05-05 18:59 28.17775 106.75069 23409 ft 436 kts 357°
2026-05-05 18:59 28.20777 106.75076 23372 ft 436 kts 357°
2026-05-05 18:59 28.23834 106.75084 23344 ft 436 kts 357°
2026-05-05 19:00 28.26846 106.75090 23088 ft 437 kts 357°
2026-05-05 19:00 28.29877 106.75076 22560 ft 435 kts 356°
2026-05-05 19:00 28.32847 106.74908 22100 ft 431 kts 353°
2026-05-05 19:00 28.35807 106.74558 21662 ft 427 kts 351°
2026-05-05 19:01 28.38733 106.74135 21243 ft 422 kts 350°
2026-05-05 19:01 28.41621 106.73703 20836 ft 418 kts 350°
2026-05-05 19:01 28.44499 106.73271 20455 ft 414 kts 350°
2026-05-05 19:01 28.47283 106.72855 20172 ft 406 kts 350°
2026-05-05 19:02 28.50060 106.72443 19908 ft 401 kts 350°
2026-05-05 19:02 28.52820 106.72032 19612 ft 399 kts 350°
2026-05-05 19:02 28.55580 106.71622 19286 ft 397 kts 350°
2026-05-05 19:02 28.58273 106.71221 18943 ft 395 kts 350°
2026-05-05 19:03 28.60980 106.70818 18583 ft 392 kts 350°
2026-05-05 19:03 28.63691 106.70416 18211 ft 390 kts 351°
2026-05-05 19:03 28.66340 106.70023 17841 ft 387 kts 351°
2026-05-05 19:03 28.69009 106.69627 17463 ft 385 kts 351°
2026-05-05 19:04 28.71634 106.69340 17090 ft 383 kts 354°
2026-05-05 19:04 28.74296 106.69229 16690 ft 381 kts 358°
2026-05-05 19:04 28.76944 106.69214 16331 ft 378 kts 358°
2026-05-05 19:04 28.79529 106.69213 15980 ft 374 kts 358°
2026-05-05 19:05 28.82131 106.69215 15620 ft 371 kts 358°
2026-05-05 19:05 28.84682 106.69215 15262 ft 369 kts 358°
2026-05-05 19:05 28.87217 106.69215 14902 ft 366 kts 358°
2026-05-05 19:05 28.89758 106.69212 14540 ft 363 kts 359°
2026-05-05 19:06 28.92281 106.69210 14177 ft 361 kts 359°
2026-05-05 19:06 28.94768 106.69207 13817 ft 359 kts 359°
2026-05-05 19:06 28.97258 106.69203 13454 ft 356 kts 359°
2026-05-05 19:06 28.99696 106.69199 13094 ft 354 kts 359°
2026-05-05 19:07 29.02177 106.69196 12727 ft 352 kts 359°
2026-05-05 19:07 29.04577 106.69192 12364 ft 350 kts 359°
2026-05-05 19:07 29.07004 106.69190 11990 ft 348 kts 359°
2026-05-05 19:07 29.09419 106.69189 11624 ft 345 kts 359°
2026-05-05 19:08 29.11792 106.69209 11260 ft 343 kts
2026-05-05 19:08 29.14157 106.68938 10622 ft 346 kts 340°
2026-05-05 19:08 29.15791 106.68078 10319 ft 341 kts 331°
2026-05-05 19:08 29.16773 106.67456 10149 ft 339 kts 330°
2026-05-05 19:09 29.18792 106.66151 9791 ft 335 kts 330°
2026-05-05 19:09 29.20831 106.64894 9464 ft 330 kts 332°
2026-05-05 19:09 29.22868 106.63707 9145 ft 325 kts 333°
2026-05-05 19:09 29.24871 106.62585 8832 ft 320 kts 334°
2026-05-05 19:10 29.26873 106.61488 8483 ft 315 kts 335°
2026-05-05 19:10 29.28825 106.60431 8143 ft 310 kts 335°
2026-05-05 19:10 29.30757 106.59390 7812 ft 306 kts 335°
2026-05-05 19:10 29.32651 106.58370 7492 ft 301 kts 335°
2026-05-05 19:11 29.34545 106.57351 7188 ft 296 kts 335°
2026-05-05 19:11 29.36381 106.56363 6910 ft 291 kts 335°
2026-05-05 19:11 29.38267 106.55610 6634 ft 284 kts 353°
2026-05-05 19:11 29.40201 106.55666 6345 ft 278 kts 12°
2026-05-05 19:12 29.42046 106.56214 6073 ft 273 kts 18°
2026-05-05 19:12 29.43850 106.56873 5804 ft 269 kts 19°
2026-05-05 19:12 29.45603 106.57527 5544 ft 265 kts 19°
2026-05-05 19:12 29.47341 106.58160 5305 ft 260 kts 19°
2026-05-05 19:13 29.49022 106.58756 5209 ft 249 kts 18°
2026-05-05 19:13 29.50641 106.59322 5227 ft 233 kts 18°
2026-05-05 19:13 29.52110 106.59830 5238 ft 211 kts 18°
2026-05-05 19:13 29.53469 106.60301 5143 ft 200 kts 18°
2026-05-05 19:14 29.54795 106.60762 4883 ft 198 kts 18°
2026-05-05 19:14 29.56090 106.61212 4621 ft 196 kts 19°
2026-05-05 19:14 29.57392 106.61665 4353 ft 192 kts 19°
2026-05-05 19:14 29.58630 106.62094 4086 ft 179 kts 19°
2026-05-05 19:15 29.59790 106.62497 3849 ft 171 kts 19°
2026-05-05 19:15 29.60917 106.62890 3638 ft 170 kts 19°
2026-05-05 19:15 29.62043 106.63283 3419 ft 165 kts 19°
2026-05-05 19:15 29.63121 106.63658 3212 ft 162 kts 19°
2026-05-05 19:16 29.64199 106.64033 3004 ft 161 kts 19°
2026-05-05 19:16 29.65275 106.64409 2791 ft 161 kts 19°
2026-05-05 19:16 29.66333 106.64778 2576 ft 160 kts 19°
2026-05-05 19:16 29.67395 106.65148 2358 ft 159 kts 19°
2026-05-05 19:17 29.68444 106.65514 2144 ft 158 kts 19°
2026-05-05 19:17 29.69488 106.65878 1935 ft 157 kts 18°
2026-05-05 19:17 29.70544 106.66251 1729 ft 157 kts 19°
2026-05-05 19:17 29.71573 106.66617 1524 ft 156 kts 18°
2026-05-05 19:18 29.72590 106.66959 1380 ft 140 kts 17°
2026-05-05 19:18 29.73352 106.67227 1379 ft 86 kts 17°
2026-05-05 19:18 29.73759 106.67358 1379 ft 41 kts 15°
2026-05-05 19:18 29.74043 106.67371 1379 ft 41 kts 352°
2026-05-05 19:19 29.74256 106.67316 1379 ft 18 kts 322°
2026-05-05 19:19 29.74306 106.67185 1379 ft 18 kts 279°
2026-05-05 19:19 29.74344 106.67044 1379 ft 18 kts 291°
2026-05-05 19:19 29.74384 106.66900 1379 ft 19 kts 287°
2026-05-05 19:20 29.74400 106.66789 1379 ft 9 kts 270°
2026-05-05 19:20 29.74411 106.66708 1379 ft 8 kts 286°
2026-05-05 19:20 29.74419 106.66676 1379 ft 2 kts 287°
2026-05-05 19:20 29.74420 106.66674 1379 ft 0 kts 287°